カタログに戻る

STARLINK-32869

運用中通信VLEO
NORAD 62859·PAYLOAD·🇺🇸 United States

打ち上げ Feb 1, 2025 から Vandenberg Space Force Base

Loading…

次のパス (今後24時間)

TLE

最新Source: CelesTrak SupGP

元期: Sep 14, 2026, 22:42 UTC

1 62859C 25022F   26257.94631944  .00015059  00000+0  44507-3 0  2572
2 62859  53.1602 327.6474 0001164  85.9226  25.9894 15.34373457    16

AllMySatでSTARLINK-32869をリアルタイム追跡

Download on the App Store